Hurricane Symbol View the latest observations near Atlantic Tropical Storm Alberto.

Station BSCA1 - Bon Secour, AL Image indicating link to RSS feed of recent meteorological observations for station BSCA1


Conditions at BSCA1 as of
(1:30 pm CDT)
1830 GMT on 06/19/2024:
Note: This report is more than two hours old
     

Click on the graph icon in the table below to see a time series plot of the last five days of that observation.

5-day plot - Atmospheric Pressure Atmospheric Pressure (PRES):30.04 in
5-day plot - Air Temperature Air Temperature (ATMP): 83.7 °F
Previous observations
TIME
(CDT)
5-day plot - Wind Direction
WDIR
 
5-day plot - Wind Speed
WSPD
kts
5-day plot - Wind Gust
GST
kts
5-day plot - Wave Height
WVHT
ft
5-day plot - Dominant Wave Period
DPD
sec
5-day plot - Average Wave Period
APD
sec
5-day plot - Mean Wave Direction
MWD
 
5-day plot - Atmospheric Pressure
PRES
in
5-day plot - Pressure Tendency
PTDY
in
5-day plot - Air Temperature
ATMP
°F
5-day plot - Water Temperature
WTMP
°F
5-day plot - Dew Point
DEWP
°F
5-day plot - Salinity
SAL
psu
5-day plot - Visibility
VIS
nmi
5-day plot - Tide (above MLLW)
TIDE
ft
2024-06-19 01:00 pm-------30.05+0.03 81.3-----
2024-06-19 12:30 pm-------30.05- 79.9-----
2024-06-19 12:00 pm-------30.06+0.04 79.9-----
2024-06-19 11:30 am-------30.05- 83.1-----
2024-06-19 11:00 am-------30.04+0.03 82.2-----
2024-06-19 10:30 am-------30.03- 81.7-----
2024-06-19 10:00 am-------30.02+0.04 80.6-----
2024-06-19 09:30 am-------30.02- 79.9-----
2024-06-19 09:00 am-------30.02+0.06 79.7-----
2024-06-19 08:30 am-------30.01- 80.1-----
2024-06-19 08:00 am-------30.01+0.06 79.9-----
2024-06-19 07:30 am-------29.99- 81.9-----
2024-06-19 07:00 am-------29.98+0.04 81.9-----
2024-06-19 06:30 am-------29.97- 82.2-----
2024-06-19 06:00 am-------29.96+0.02 82.2-----
2024-06-19 05:30 am-------29.95- 82.2-----
2024-06-19 05:00 am-------29.94-0.01 82.2-----
2024-06-19 04:30 am-------29.95- 82.4-----
2024-06-19 04:00 am-------29.93-0.03 82.8-----
2024-06-19 03:00 am-------29.94-0.03 83.5-----
2024-06-19 02:30 am-------29.96- 81.5-----
2024-06-19 02:00 am-------29.95-0.04 79.2-----
2024-06-19 01:30 am-------29.94- 79.0-----
2024-06-19 01:00 am-------29.97-0.01 79.3-----
2024-06-19 12:30 am-------29.97- 79.3-----
2024-06-19 12:00 am-------29.97+0.00 79.5-----
2024-06-18 11:30 pm-------29.97- 79.9-----
2024-06-18 11:00 pm-------29.99+0.02 80.4-----
2024-06-18 10:30 pm-------29.98- 80.6-----
2024-06-18 10:00 pm-------29.98+0.01 81.5-----
2024-06-18 09:30 pm-------29.96- 81.5-----
2024-06-18 09:00 pm-------29.96+0.00 82.6-----
2024-06-18 08:00 pm-------29.97+0.02 83.7-----
2024-06-18 07:30 pm-------29.98- 84.4-----
2024-06-18 07:00 pm-------29.96-0.01 84.9-----
2024-06-18 06:30 pm-------29.95- 84.7-----
2024-06-18 06:00 pm-------29.96-0.01 84.4-----
2024-06-18 05:30 pm-------29.96- 84.7-----
2024-06-18 05:00 pm-------29.95-0.03 85.1-----
2024-06-18 04:30 pm-------29.96- 84.7-----
2024-06-18 04:00 pm-------29.97-0.01 84.7-----